User: anonymous   Login
Location: Donald C. Martin Observatory
(38.3885°N, 82.3916°W)
Time: 06:39:46
(UTC-04:00)
Language:

Cosmos 1484 Rocket - Orbit

View from above orbital plane
View from above orbital plane
View from above satellite
View from above satellite

Ground track
Ground track

The orbit data is extracted from the following two-line orbital elements,

1 14208U 83075B   17178.96724482 +.00000421 +00000-0 +28876-4 0  9996
2 14208 097.3400 189.0926 0041156 093.8965 266.6972 15.10396657848834
Epoch (UTC): 27 June 2017 23:12:49
Eccentricity: 0.0041156
inclination: 97.3400°
perigee height: 506 km
apogee height: 563 km
right ascension of ascending node: 189.0926°
argument of perigee: 93.8965°
revolutions per day: 15.10396657
mean anomaly at epoch: 266.6972°
orbit number at epoch: 84883

The dashed part of the orbit path shows where the satellite is in the earth's shadow,  

DLR